Orbital Elements at Epoch 2459000.5 (2020-May-31.0) TDB
Reference: JPL 10 (heliocentric ecliptic J2000)
Element | Value | Uncertainty (1-sigma) | Units |
e | .030143243746803 | 5.6794e-08 | |
a | 1.985393573424742 | 9.7727e-09 | au |
q | 1.925547371007664 | 1.1676e-07 | au |
i | 18.68903174695372 | 7.7554e-06 | deg |
node | 299.9126727705964 | 1.2885e-05 | deg |
peri | 329.7943062719457 | 0.00011361 | deg |
M | 280.8590303593292 | 0.00011197 | deg |
tp | 2459225.129717391387 (2021-Jan-10.62971739) | 0.00031733 | TDB |
period | 1021.80575532577 2.80 | 7.5445e-06 2.066e-08 | d yr |
n | .3523174518480037 | 2.6013e-09 | deg/d |
Q | 2.045239775841821 | 1.0067e-08 | au |
|
| | Orbit Determination Parameters
Additional Information
|